{"data":{"norad_id":56399,"intl_designator":"2023-061AB","name":"STARLINK-6277","alt_names":[],"object_type":"PAYLOAD","status":"ACTIVE","operator":null,"country":"US","launch_date":"2023-05-04","launch_site_code":"AFETR","launch_vehicle":null,"mission":null,"orbit_class":"UNKNOWN","rcs_meters":null,"size_class":null,"mass_kg":null,"dimensions":null,"purposes":["comms"],"wikipedia_slug":null,"has_3d_model":false,"image_url":null,"decayed_at":null,"tle_current":{"epoch":"2026-09-20T02:59:59.819424Z","epoch_age_seconds":144474,"freshness":"FRESH","line1":"1 56399U 23061AB  26263.12499791 -.00000587  00000+0 -11796-4 0  9994","line2":"2 56399  43.0031 168.7499 0001083 265.8930  94.1798 15.27572320186618","mean_motion":15.2757232,"eccentricity":0.0001083,"inclination_deg":43.0031,"raan_deg":168.7499,"arg_perigee_deg":265.893,"mean_anomaly_deg":94.1798,"bstar":-1.1796e-5,"rev_number":18661,"period_min":94.267222647763,"perigee_km":482.32902387411,"apogee_km":483.81516176362,"semimajor_km":6861.2090928189,"source":"CELESTRAK","updated_at":"2026-09-21T09:00:33.435055Z"}}}